Weather History for Northeast Philadelphia, PA

Change the Weather History Date:

Thursday, August 1, 2013

  Actual Average Record
Temperature  
Mean Temperature 70 °F -  
Max Temperature 73 °F 83 °F 98 °F (1999)
Min Temperature 66 °F 65 °F 57 °F (1998)
Cooling Degree Days 4    
Growing Degree Days 20 (Base 50)    
Moisture  
Dew Point 67 °F    
Average Humidity 92    
Maximum Humidity 100    
Minimum Humidity 73    
Precipitation  
Precipitation 1.03 in - - ()
Sea Level Pressure  
Sea Level Pressure 29.92 in    
Wind  
Wind Speed 4 mph (SE)    
Max Wind Speed 12 mph    
Max Gust Speed 21 mph    
Visibility 5 miles    
Events Rain , Thunderstorm    
Averages and records for this station are not official NWS values.
T = Trace of Precipitation, MM = Missing Value Source: NWS Daily Summary

Daily Weather History Graph

Daily Weather History Graph

Search for Another Location

Airport:

Trip Planner

Search our weather history database for the weather conditions in past years. The results will help you decide how hot, cold, wet, or windy it might be!

Date:

Astronomy

Aug. 01, 2013 Rise Set
Actual Time 5:58 AM EDT 8:13 PM EDT
Civil Twilight 5:28 AM EDT 8:43 PM EDT
Nautical Twilight 4:50 AM EDT 9:21 PM EDT
Astronomical Twilight 4:09 AM EDT 10:01 PM EDT
Moon 1:32 AM EDT (8/1) 4:20 PM EDT (8/1)
Length of Visible Light 15h 15m
Length of Day
14h 15m
Waning Crescent, 23% of the Moon is Illuminated
Aug 1
Waning Crescent
Aug 6
New
Aug 14
First Quarter
Aug 20
Full
Aug 28
Last Quarter

Hourly Weather History & Observations

Time (EDT) Temp. Dew Point Humidity Pressure Visibility Wind Dir Wind Speed Gust Speed Precip Events Conditions
12:54 AM 73.0 °F 64.0 °F 73% 30.04 in 10.0 mi Calm Calm - N/A   Scattered Clouds
1:54 AM 72.0 °F 64.0 °F 76% 30.03 in 10.0 mi Calm Calm - N/A   Partly Cloudy
2:54 AM 71.1 °F 63.0 °F 75% 30.01 in 10.0 mi Calm Calm - N/A   Partly Cloudy
3:54 AM 70.0 °F 64.0 °F 81% 29.99 in 10.0 mi Calm Calm - N/A   Clear
4:54 AM 70.0 °F 64.9 °F 84% 29.98 in 10.0 mi Variable 3.5 mph - N/A   Scattered Clouds
5:54 AM 71.1 °F 64.9 °F 81% 29.97 in 6.0 mi SSW 9.2 mph - 0.00 in Rain Light Rain
6:39 AM 69.8 °F 66.2 °F 88% 29.98 in 3.0 mi Variable 3.5 mph - 0.02 in Rain Rain
6:52 AM 69.8 °F 66.2 °F 88% 29.98 in 2.5 mi SSW 4.6 mph - 0.04 in Rain Light Rain
6:54 AM 70.0 °F 66.9 °F 90% 29.98 in 3.0 mi Variable 3.5 mph - 0.04 in Rain Light Rain
7:15 AM 69.8 °F 66.2 °F 88% 29.97 in 2.5 mi Variable 4.6 mph - 0.02 in Rain Rain
7:25 AM 69.8 °F 66.2 °F 88% 29.98 in 1.5 mi SSW 4.6 mph - 0.07 in Rain Heavy Rain
7:33 AM 69.8 °F 66.2 °F 88% 29.98 in 3.0 mi South 4.6 mph - 0.08 in Rain Light Rain
7:54 AM 69.1 °F 68.0 °F 96% 29.97 in 2.5 mi SSW 3.5 mph - 0.10 in Rain Rain
8:06 AM 69.8 °F 68.0 °F 94% 29.97 in 1.8 mi Variable 4.6 mph - 0.04 in Rain Rain
8:17 AM 69.8 °F 68.0 °F 94% 29.97 in 2.0 mi South 3.5 mph - 0.06 in Rain Light Rain
8:21 AM 69.8 °F 68.0 °F 94% 29.97 in 2.5 mi Variable 3.5 mph - 0.06 in Rain Light Rain
8:28 AM 69.8 °F 68.0 °F 94% 29.97 in 3.0 mi South 4.6 mph - 0.06 in Rain Light Rain
8:44 AM 69.8 °F 66.2 °F 88% 29.97 in 5.0 mi Calm Calm - 0.06 in Rain Light Rain
8:54 AM 69.1 °F 66.9 °F 93% 29.96 in 2.5 mi SE 3.5 mph - 0.08 in Rain Rain
9:11 AM 68.0 °F 66.2 °F 94% 29.96 in 4.0 mi ESE 4.6 mph - 0.02 in Rain Light Rain
9:26 AM 69.8 °F 68.0 °F 94% 29.95 in 2.5 mi SE 6.9 mph - 0.04 in Rain Light Rain
9:37 AM 69.8 °F 68.0 °F 94% 29.95 in 3.0 mi SE 6.9 mph - 0.04 in Rain Light Rain
9:44 AM 69.8 °F 68.0 °F 94% 29.95 in 3.0 mi SSE 6.9 mph - 0.04 in Rain Light Rain
9:54 AM 69.1 °F 66.9 °F 93% 29.96 in 4.0 mi Variable 4.6 mph - 0.04 in Rain Light Rain
10:04 AM 69.8 °F 66.2 °F 88% 29.95 in 2.0 mi Variable 4.6 mph - 0.03 in Rain Light Rain
10:13 AM 69.8 °F 66.2 °F 88% 29.95 in 4.0 mi Variable 6.9 mph - 0.03 in Rain Light Rain
10:21 AM 68.0 °F 66.2 °F 94% 29.95 in 5.0 mi SSE 11.5 mph 20.7 mph 0.03 in Rain Light Rain
10:28 AM 68.0 °F 64.4 °F 88% 29.95 in 5.0 mi SSE 6.9 mph 20.7 mph 0.03 in Rain Light Rain
10:54 AM 68.0 °F 64.9 °F 90% 29.94 in 7.0 mi SE 9.2 mph - 0.03 in Rain Light Rain
11:11 AM 66.2 °F 64.4 °F 94% 29.94 in 2.5 mi SE 6.9 mph - 0.04 in Rain Light Rain
11:18 AM 66.2 °F 64.4 °F 94% 29.94 in 4.0 mi SE 4.6 mph - 0.05 in Rain Rain
11:29 AM 66.2 °F 64.4 °F 94% 29.94 in 2.5 mi SE 6.9 mph - 0.09 in Rain Rain
11:37 AM 66.2 °F 64.4 °F 94% 29.94 in 5.0 mi SSE 6.9 mph - 0.09 in Rain Light Rain
11:54 AM 68.0 °F 66.0 °F 93% 29.94 in 4.0 mi SE 6.9 mph - 0.11 in Rain Light Rain
12:07 PM 68.0 °F 66.2 °F 94% 29.94 in 2.0 mi Calm Calm - 0.05 in Rain Heavy Rain
12:20 PM 66.2 °F 66.2 °F 100% 29.94 in 1.2 mi East 4.6 mph - 0.12 in Rain Heavy Rain
12:43 PM 68.0 °F 66.2 °F 94% 29.93 in 1.8 mi East 4.6 mph - 0.19 in Rain Rain
12:51 PM 68.0 °F 66.2 °F 94% 29.92 in 1.0 mi East 4.6 mph - 0.27 in Rain Rain
12:54 PM 68.0 °F 66.9 °F 96% 29.92 in 1.2 mi East 6.9 mph - 0.30 in Rain Heavy Rain
1:11 PM 68.0 °F 66.2 °F 94% 29.92 in 2.0 mi East 6.9 mph - 0.08 in Rain Light Rain
1:21 PM 68.0 °F 66.2 °F 94% 29.92 in 3.0 mi East 6.9 mph - 0.08 in Rain Light Rain
1:29 PM 68.0 °F 66.2 °F 94% 29.91 in 3.0 mi East 5.8 mph - 0.08 in Rain Light Rain
1:44 PM 68.0 °F 66.2 °F 94% 29.90 in 2.5 mi East 9.2 mph - 0.09 in Rain , Thunderstorm Light Rain
1:51 PM 68.0 °F 66.2 °F 94% 29.90 in 3.0 mi East 9.2 mph - 0.09 in Rain , Thunderstorm Light Rain
1:54 PM 68.0 °F 66.9 °F 96% 29.90 in 4.0 mi East 8.1 mph - 0.09 in Rain , Thunderstorm Light Rain
1:59 PM 68.0 °F 66.2 °F 94% 29.90 in 3.0 mi East 5.8 mph - 0.00 in Rain Light Rain
2:12 PM 68.0 °F 66.2 °F 94% 29.90 in 1.8 mi Variable 6.9 mph - 0.02 in Rain Heavy Rain
2:30 PM 69.8 °F 66.2 °F 88% 29.89 in 3.0 mi Calm Calm - 0.10 in Rain Light Rain
2:38 PM 69.8 °F 68.0 °F 94% 29.89 in 2.5 mi ESE 5.8 mph - 0.11 in Rain Light Rain
2:42 PM 69.8 °F 68.0 °F 94% 29.89 in 1.2 mi SE 6.9 mph - 0.15 in Rain Heavy Rain
2:52 PM 69.8 °F 68.0 °F 94% 29.88 in 3.0 mi ESE 6.9 mph - 0.21 in Rain Light Rain
2:54 PM 69.1 °F 68.0 °F 96% 29.88 in 4.0 mi ESE 5.8 mph - 0.21 in Rain Light Rain
3:36 PM 69.8 °F 68.0 °F 94% 29.87 in 10.0 mi South 8.1 mph - 0.01 in   Overcast
3:45 PM 69.8 °F 68.0 °F 94% 29.87 in 10.0 mi SSE 5.8 mph - 0.01 in   Overcast
3:54 PM 70.0 °F 68.0 °F 93% 29.87 in 10.0 mi SSE 6.9 mph - 0.01 in   Overcast
4:15 PM 69.8 °F 68.0 °F 94% 29.87 in 2.0 mi Variable 4.6 mph - 0.00 in Rain Light Rain
4:37 PM 69.8 °F 68.0 °F 94% 29.87 in 1.5 mi Calm Calm - 0.01 in Rain Light Rain
4:54 PM 70.0 °F 69.1 °F 97% 29.86 in 2.0 mi Calm Calm - 0.02 in Rain Light Rain
5:54 PM 72.0 °F 71.1 °F 97% 29.85 in 2.0 mi Calm Calm - 0.00 in   Overcast
6:27 PM 73.4 °F 71.6 °F 94% 29.86 in 5.0 mi Calm Calm - N/A   Overcast
6:50 PM 73.4 °F 71.6 °F 94% 29.86 in 6.0 mi Variable 4.6 mph - N/A   Mostly Cloudy
6:54 PM 73.0 °F 71.1 °F 93% 29.86 in 7.0 mi South 3.5 mph - N/A   Mostly Cloudy
7:21 PM 71.6 °F 69.8 °F 94% 29.87 in 10.0 mi SSW 5.8 mph - N/A   Overcast
7:31 PM 71.6 °F 69.8 °F 94% 29.87 in 10.0 mi SSW 3.5 mph - N/A   Overcast
7:54 PM 72.0 °F 70.0 °F 93% 29.87 in 10.0 mi Variable 3.5 mph - N/A   Mostly Cloudy
8:08 PM 71.6 °F 69.8 °F 94% 29.87 in 10.0 mi SSW 3.5 mph - N/A   Mostly Cloudy
8:54 PM 71.1 °F 69.1 °F 93% 29.88 in 10.0 mi SSW 3.5 mph - N/A   Overcast
9:41 PM 71.6 °F 69.8 °F 94% 29.86 in 10.0 mi Calm Calm - N/A   Mostly Cloudy
9:54 PM 71.1 °F 69.1 °F 93% 29.86 in 10.0 mi Calm Calm - N/A   Mostly Cloudy
10:54 PM 70.0 °F 69.1 °F 97% 29.86 in 10.0 mi Calm Calm - N/A   Mostly Cloudy
11:01 PM 69.8 °F 69.8 °F 100% 29.85 in 10.0 mi Calm Calm - N/A   Mostly Cloudy
11:17 PM 69.8 °F 69.8 °F 100% 29.86 in 10.0 mi Calm Calm - N/A   Scattered Clouds
11:54 PM 69.1 °F 69.1 °F 100% 29.86 in 8.0 mi Calm Calm - N/A   Partly Cloudy